H-2A DEB, 38347

Orbit data source: Space-Track

H-2A DEB, 38347 is space debris in SSO originally from a launch on Thu, 17 May 2012 UTC launched from the Tanegashima Space Center (TNSTA). Debris objects in space refer to the collection of defunct objects orbiting the Earth. Examples of debris include non-operational satellites, rocket bodies, and fragments generated from explosions, collisions, or faulty payload assembly.

Loading next visibility...
Identifier
38347, 2012-025H
Orbit
SSO
Country
Flag of JPJP / JPN
Related business
Manufacturer
Kawasaki
Mission
Spacecraft
Bus & Motor
Unknown
Mass
~100 kg wet, ~100 kg dry
Launch date (UTC)
2012-05-17 (13 years ago)
Launch vehicle
Unknown
Launch site
Tanegashima Space Center (TNSTA)
Object type
Payload
Rocket body
Debris
Shape & HBR
Half Cyl, 2.0 m
Radar Cross Section
13.425 m², Large (>1 m²)

Expand to show TLE details & history
Last TLE update: 11 hours ago

TLE from 11 hours ago
0 H-2A DEB
1 38347U 12025H   25297.89125211  .00007540  00000-0  77382-3 0  9995
2 38347  98.1847  56.1815 0007008 160.3644 199.7844 14.90694075723716
Epoch: 2025-10-24T21:23Z
TLE epoch observation values (Epoch: 2025-10-24T21:23:24.182Z)
Latitude
-0.00001°
Longitude
61.80109°
Altitude
603.398 km
Speed
7.555 km/s
True Right ascension
03h 44m 43s
True Declination
0° 00' 00"
Sunlit
Object was in full shadow at epoch
Visualization orbit readout
Latitude
Unknown
Longitude
Unknown
Altitude
Unknown
Speed
Unknown
Apparent Right ascension
Unknown
Apparent Declination
Unknown
Sunlit
N/A
Visualization observer readout
Local Sidereal Time
03:32:42
Azimuth
Unknown
Elevation
Unknown
Doppler factor
Unknown
Orbital elements
Apogee altitude
597.695 km
Perigee altitude
587.924 km
Semi-major axis
6,970.947 km
Eccentricity
0.0007
Inclination
98.1847°
RAAN
56.1815°
Arg. of periapsis
160.3644°
True anomaly
199.75724°
Mean anomaly
199.7844°
Eccentric anomaly
199.77082°
Mean motion
3.72911 °/min
Orbital period
96.54 mins
BSTAR
0.00077382
Loading maneuver chart data...
Computing Atmospheric mass density...

Documentation

Showing up to 5 results
|